Location: B�rgermoos
(47.6500°N, 9.0667°E)
Time: 04:03:38
(UTC+00:00)

Vanguard 2 Rocket - Pass Details

Date: 13 August 2021
Orbit: 556 x 3323 km, 32.9° (Epoch: 27 September)

Event Time Altitude Azimuth Distance (km) Brightness Sun altitude
Rises 00:28:58 0° 201° (SSW) 6,186 - -26.3°
Reaches altitude 10° 00:37:18 10° 175° (S) 4,389 - -25.8°
Maximum altitude 00:40:38 12° 158° (SSE) 3,903 - -25.7°
Drops below altitude 10° 00:43:32 10° 140° (SE) 3,709 - -25.5°
Exits shadow 00:43:32 10° 140° (SE) 3,709 9.7 -25.5°
Sets 00:48:46 0° 110° (ESE) 4,074 10.3 -25.2°
